This is the latest recevied weather packets stored in our database for station/object W5ITZ. If no packets are shown the sender has not sent any weather packets the latest 10 day(s).
| Time | Temp. | Humidity | Pressure | Rain* | Wind** | Luminosity | Snow |
|---|---|---|---|---|---|---|---|
| 1787514415 | 36.67° C | 46% | 1015.3 hPa | 0 mm | - | 894 W/m² | - |
| 1787514109 | 36.11° C | 46% | 1015.5 hPa | 0 mm | - | 885 W/m² | - |
| 1787513804 | 36.67° C | 44% | 1015.6 hPa | 0 mm | - | 892 W/m² | - |
| 1787513500 | 36.67° C | 45% | 1015.5 hPa | 0 mm | - | 903 W/m² | - |
| 1787513196 | 36.11° C | 43% | 1015.6 hPa | 0 mm | - | 563 W/m² | - |
| 1787512892 | 36.11° C | 44% | 1015.6 hPa | 0 mm | - | 912 W/m² | - |
| 1787512588 | 36.11° C | 41% | 1015.8 hPa | 0 mm | - | 923 W/m² | - |
| 1787512284 | 36.11° C | 43% | 1015.8 hPa | 0 mm | - | 925 W/m² | - |
| 1787511979 | 35.56° C | 45% | 1015.6 hPa | 0 mm | - | 932 W/m² | - |
| 1787511674 | 36.11° C | 44% | 1015.6 hPa | 0 mm | - | 941 W/m² | - |
| 1787511373 | 35.56° C | 45% | 1015.8 hPa | 0 mm | - | 941 W/m² | - |
| 1787511067 | 35.56° C | 45% | 1015.8 hPa | 0 mm | - | 945 W/m² | - |
| 1787510761 | 35.56° C | 47% | 1015.7 hPa | 0 mm | - | 954 W/m² | - |
| 1787510457 | 35.56° C | 45% | 1016 hPa | 0 mm | - | 957 W/m² | - |
| 1787510152 | 35.56° C | 45% | 1015.9 hPa | 0 mm | - | 882 W/m² | - |
| 1787509849 | 35.56° C | 45% | 1016 hPa | 0 mm | - | 913 W/m² | - |
| 1787509544 | 35.56° C | 46% | 1016 hPa | 0 mm | - | 830 W/m² | - |
| 1787509241 | 35.56° C | 46% | 1015.9 hPa | 0 mm | - | 944 W/m² | - |
| 1787508940 | 35° C | 46% | 1015.9 hPa | 0 mm | - | 779 W/m² | - |
| 1787508637 | 34.44° C | 48% | 1016 hPa | 0 mm | - | 1054 W/m² | - |
| 1787508337 | 34.44° C | 48% | 1016.1 hPa | 0 mm | - | 667 W/m² | - |
| 1787508033 | 35° C | 47% | 1016.2 hPa | 0 mm | - | 712 W/m² | - |
| 1787507729 | 34.44° C | 48% | 1016.1 hPa | 0 mm | - | 894 W/m² | - |
| 1787507425 | 34.44° C | 48% | 1016.3 hPa | 0 mm | - | 639 W/m² | - |
| 1787507120 | 34.44° C | 47% | 1016.2 hPa | 0 mm | - | 563 W/m² | - |
* Rain latest hour (hover to see other rain measurements)
** Current wind speed in m/s (hover to see current wind gust speed)